Simultaneous Nadir Overpasses (SNOs) Predictions

Prediction of SNOs between AURA and NPP Satellite Orbit:

Table of predicted SNOs for the next 14.0 days since TLE Epoch: 8/1/2020
Index Date (AURA) Time (AURA) Lat,Lon (AURA) SZA (AURA ) Date (NPP) Time (NPP) Lat,Lon (NPP) SZA (NPP ) Distance(km) Time Diff (sec)
1 08/02/2020 03:41:31 79.50, 21.44 75.31 08/02/2020 03:41:25 79.51, 21.54 75.30 2.23 6
2 08/02/2020 04:30:54 -79.65,-169.83 104.92 08/02/2020 04:32:06 -79.65,-169.93 104.95 2.13 72
3 08/04/2020 19:08:40 -79.31, -31.61 103.73 08/04/2020 19:07:43 -79.31, -31.58 103.70 0.64 57
4 08/04/2020 19:58:00 79.53, 137.56 75.95 08/04/2020 19:58:21 79.52, 137.46 75.95 2.26 21
5 08/07/2020 11:25:06 -79.42, 85.01 103.18 08/07/2020 11:24:35 -79.43, 85.14 103.19 2.72 31
6 08/07/2020 12:14:26 79.64,-105.81 76.50 08/07/2020 12:15:13 79.64,-105.81 76.47 0.25 47
7 08/10/2020 03:41:35 -79.45,-158.89 102.49 08/10/2020 03:41:31 -79.45,-158.95 102.47 1.38 4
8 08/10/2020 04:30:53 79.74, 10.83 77.09 08/10/2020 04:32:06 79.75, 10.94 77.02 2.20 73
9 08/12/2020 19:08:42 79.28, 148.17 78.54 08/12/2020 19:07:47 79.27, 148.12 78.59 1.07 55
